Погода в Вязьме

Россия / Смоленская область     55°12′21″N   34°17′52″E
темп.,
°C
ветер,
м/с
пор.,
м/с
влажн.,
%
обл.,
%
осадки,
мм/ч
давл.,
гПа
погр.,
м
10 мая, пн
пн1000:00+3ссз36703 0.0 1024100
03:00+2ссз33715 0.0 102632
06:00+3с22722 0.0 102734
09:00+9с22535 0.0 1027378
12:00+12ссв23390 0.0 10271275
15:00+14св344018 0.0 10271477
18:00+14св35530 0.0 10261215
21:00+8всв22712 0.0 102722
11 мая, вт
вт1100:00+6всв33740 0.0 102835
03:00+4св33770 0.0 102934
06:00+4св367917 0.0 1028121
09:00+10всв486270 0.0 1028451
12:00+15всв57495 0.0 1026811
15:00+17всв56490 0.0 1025965
18:00+17всв47620 0.0 1025754
21:00+12в37860 0.0 1025103
12 мая, ср
ср1200:00+11юв4109715 0.0 1026287
03:00+8ююв379663 0.0 1026163
06:00+7ююв24925 0.0 1027101
09:00+12вюв23665 0.0 1026502
12:00+15ссв345646 0.0 1023865
15:00+14всв3990100 2.4 1019402
18:00+13всв81592100 4.0 10161059
21:00+8юв9159298 6.8 10171067
13 мая, чт
чт1300:00+6юв6149382 0.0 1020680
03:00+6вюв5149540 0.0 1019544
06:00+6в5149391 0.0 1018530
09:00+8вюв61394100 1.6 1017732
12:00+12юв697678 0.1 10171156
15:00+15юв5857100 0.2 10161842
18:00+15ююв4762100 0.0 1015745
21:00+10юв348196 0.0 101648
14 мая, пт
пт1400:00+8юв3490100 0.0 101656
03:00+7юв34935 0.0 101668
06:00+8юв37967 0.0 1016170
09:00+14юв4780100 0.0 1015475
12:00+18юв796889 0.2 10141276
15:00+17юв597189 0.4 1014767
18:00+18вюв510785 0.4 1012780
21:00+14вюв389598 0.4 1011160